sat.trackr.live / text

‹ back to catalog

KUIPER-00614

NORAD 69773 · 2026-151L

PAYLOAD ACTIVE UNKNOWN

§ Identity

Operator
Country
US
Launch date
2026-07-02
Launch site
AFETR
Launch vehicle
Mass (kg)
RCS (m²)

External: N2YO · Heavens-Above · Gunter

§ Orbital elements

Epoch: 2026-09-19T22:25:11.582112Z

Period
97.30 min
Inclination
51.8987°
Eccentricity
0.0001254
Mean motion
14.79929506 rev/d
Perigee alt
628.7 km
Apogee alt
630.4 km
Semi-major
7,007.7 km
B*
6.2453e-5
RAAN
231.7507°
Arg perigee
48.7787°
Mean anomaly
311.3284°
Rev number
1,208

§ Raw data

KUIPER-006141 69773U 26151L   26262.93416183  .00000255  00000+0  62453-4 0  99952 69773  51.8987 231.7507 0001254  48.7787 311.3284 14.79929506 12085

JSON: /api/v1/satellites/69773 · /tle

For live sub-satellite position, see the globe view (requires WebGL).

§ Visibility from observer

Set your observer location to see the next 7 days of passes ≥ 10°. The values pass through the URL so the page stays shareable.

No JS? Fill the form by hand. The geolocation button needs JavaScript.